Powrót do katalogu

MOLNIYA 1-29

AktywnyŁącznośćHEO
NORAD 7780·PAYLOAD·🇷🇺 Russia

Wystrzelony Apr 29, 1975 z Plesetsk Cosmodrome

Loading…

Następne Przeloty (najbliższe 24 godziny)

TLE

ŚwieżeSource: Space-Track

Epoka: Sep 14, 2026, 11:21 UTC

1 07780U 75036A   26257.47302599 -.00000151  00000-0 -25347-1 0  9995
2 07780  64.2118  50.8652 6941164 278.1942  14.7195  2.00627497376714

Śledź MOLNIYA 1-29 w czasie rzeczywistym z AllMySat

Download on the App Store